Weather History for New Richmond, WI

Change the Weather History Date:

Friday, January 25, 2013

  Actual Average (KMSP) Record (KMSP)
Temperature  
Mean Temperature 11 °F 16 °F  
Max Temperature 19 °F 24 °F 58 °F (1944)
Min Temperature 3 °F 7 °F -31 °F (1904)
Degree Days  
Heating Degree Days 54 49  
Month to date heating degree days 1241  
Since 1 July heating degree days 4264  
Cooling Degree Days 0 0  
Month to date cooling degree days 0  
Year to date cooling degree days 0  
Moisture  
Dew Point 6 °F    
Average Humidity 74    
Maximum Humidity 86    
Minimum Humidity 58    
Precipitation  
Precipitation 0.00 in 0.02 in 0.50 in (1950)
Month to date precipitation 0.74  
Year to date precipitation 0.74  
Snow  
Snow 0.00 in 0.40 in 7.50 in (1950)
Month to date snowfall 10.0  
Since 1 July snowfall 31.8  
Snow Depth -    
Sea Level Pressure  
Sea Level Pressure 30.06 in    
Wind  
Wind Speed 11 mph (West)    
Max Wind Speed 20 mph    
Max Gust Speed 29 mph    
Visibility 8 miles    
Events Snow    
T = Trace of Precipitation, MM = Missing Value Source: NWS Daily Summary

Daily Weather History Graph

Daily Weather History Graph

Search for Another Location

Airport:

Trip Planner

Search our weather history database for the weather conditions in past years. The results will help you decide how hot, cold, wet, or windy it might be!

Date:

Astronomy

Jan. 25, 2013 Rise Set
Actual Time 7:37 AM CST 5:08 PM CST
Civil Twilight 7:05 AM CST 5:40 PM CST
Nautical Twilight 6:29 AM CST 6:15 PM CST
Astronomical Twilight 5:54 AM CST 6:50 PM CST
Moon 4:05 PM CST (1/25) 6:17 AM CST (1/25)
Length of Visible Light 10h 34m
Length of Day
9h 30m
Waxing Gibbous, 98% of the Moon is Illuminated
Jan 25
Waxing Gibbous
Jan 26
Full
Feb 3
Last Quarter
Feb 10
New
Feb 17
First Quarter

Hourly Weather History & Observations

Time (CST) Temp. Windchill Dew Point Humidity Pressure Visibility Wind Dir Wind Speed Gust Speed Precip Events Conditions
12:15 AM 10.4 °F -3.3 °F 3.2 °F 73% 30.16 in 5.0 mi SSE 10.4 mph - N/A Snow Light Snow
12:35 AM 10.4 °F -4.1 °F 5.0 °F 79% 30.15 in 4.0 mi SSE 11.5 mph - N/A Snow Light Snow
12:55 AM 10.4 °F -4.1 °F 6.8 °F 85% 30.14 in 3.0 mi South 11.5 mph - N/A Snow Light Snow
1:15 AM 10.4 °F -4.1 °F 6.8 °F 85% 30.13 in 7.0 mi South 11.5 mph - N/A Snow Light Snow
1:35 AM 12.2 °F -1.0 °F 8.6 °F 85% 30.12 in 3.0 mi South 10.4 mph - N/A Snow Light Snow
1:55 AM 12.2 °F -1.8 °F 8.6 °F 85% 30.11 in 4.0 mi SSE 11.5 mph - N/A Snow Light Snow
2:15 AM 12.2 °F -1.0 °F 8.6 °F 85% 30.09 in 7.0 mi South 10.4 mph - N/A   Overcast
2:35 AM 12.2 °F -0.2 °F 8.6 °F 85% 30.08 in 10.0 mi South 9.2 mph - N/A   Overcast
2:55 AM 12.2 °F -0.2 °F 8.6 °F 85% 30.07 in 10.0 mi South 9.2 mph - N/A Snow Light Snow
3:15 AM 12.2 °F -1.0 °F 8.6 °F 85% 30.06 in 10.0 mi South 10.4 mph - N/A Snow Light Snow
3:35 AM 12.2 °F -0.2 °F 8.6 °F 85% 30.04 in 10.0 mi South 9.2 mph - N/A Snow Light Snow
3:55 AM 14.0 °F 2.0 °F 8.6 °F 79% 30.03 in 10.0 mi South 9.2 mph - N/A   Overcast
4:15 AM 14.0 °F 0.5 °F 10.4 °F 86% 29.99 in 10.0 mi South 11.5 mph 17.3 mph N/A   Overcast
4:35 AM 14.0 °F 1.2 °F 10.4 °F 86% 29.98 in 10.0 mi South 10.4 mph - N/A   Overcast
4:55 AM 14.0 °F 0.5 °F 10.4 °F 86% 29.97 in 10.0 mi South 11.5 mph - N/A   Overcast
5:15 AM 14.0 °F 2.0 °F 10.4 °F 86% 29.96 in 10.0 mi SSW 9.2 mph - N/A   Overcast
5:35 AM 14.0 °F 1.2 °F 10.4 °F 86% 29.95 in 10.0 mi SSW 10.4 mph - N/A   Overcast
6:15 AM 15.8 °F 3.4 °F 10.4 °F 79% 29.94 in 10.0 mi SSW 10.4 mph - N/A   Overcast
6:35 AM 15.8 °F 4.2 °F 10.4 °F 79% 29.93 in 10.0 mi SSW 9.2 mph - N/A   Overcast
6:55 AM 15.8 °F 4.2 °F 10.4 °F 79% 29.92 in 10.0 mi SW 9.2 mph - N/A   Overcast
7:35 AM 15.8 °F 3.4 °F 10.4 °F 79% 29.92 in 10.0 mi SW 10.4 mph - N/A Snow Light Snow
7:55 AM 17.6 °F 5.0 °F 10.4 °F 73% 29.91 in 4.0 mi WSW 11.5 mph - N/A Snow Light Snow
8:15 AM 17.6 °F 5.0 °F 10.4 °F 73% 29.90 in 2.5 mi WSW 11.5 mph - N/A Snow Light Snow
8:35 AM 17.6 °F 5.0 °F 12.2 °F 79% 29.90 in 5.0 mi WSW 11.5 mph - N/A Snow Light Snow
8:55 AM 17.6 °F 6.4 °F 12.2 °F 79% 29.90 in 4.0 mi WSW 9.2 mph - N/A Snow Light Snow
9:15 AM 17.6 °F 3.7 °F 12.2 °F 79% 29.90 in 7.0 mi West 13.8 mph - N/A Snow Light Snow
9:35 AM 19.4 °F 4.5 °F 12.2 °F 74% 29.90 in 5.0 mi West 17.3 mph 23.0 mph N/A Snow Light Snow
9:55 AM 19.4 °F 6.0 °F 12.2 °F 74% 29.91 in 7.0 mi West 13.8 mph - N/A Snow Light Snow
10:15 AM 19.4 °F 4.5 °F 12.2 °F 74% 29.91 in 2.5 mi West 17.3 mph - N/A Snow Light Snow
10:35 AM 19.4 °F 3.6 °F 12.2 °F 74% 29.91 in 2.0 mi WNW 19.6 mph 24.2 mph N/A Snow Light Snow
10:55 AM 19.4 °F 6.0 °F 12.2 °F 74% 29.92 in 10.0 mi NW 13.8 mph 21.9 mph N/A   Overcast
11:15 AM 17.6 °F 3.7 °F 10.4 °F 73% 29.93 in 2.5 mi NW 13.8 mph 28.8 mph N/A   Haze
11:35 AM 17.6 °F 1.7 °F 8.6 °F 68% 29.94 in 3.0 mi NW 18.4 mph 27.6 mph N/A Snow Light Snow
11:55 AM 17.6 °F 1.7 °F 8.6 °F 68% 29.95 in 4.0 mi NW 18.4 mph 28.8 mph N/A   Haze
12:15 PM 17.6 °F 1.7 °F 8.6 °F 68% 29.95 in 7.0 mi NW 18.4 mph 27.6 mph N/A   Overcast
12:35 PM 17.6 °F 3.7 °F 8.6 °F 68% 29.96 in 10.0 mi NW 13.8 mph 20.7 mph N/A   Mostly Cloudy
12:55 PM 17.6 °F 3.2 °F 6.8 °F 63% 29.97 in 10.0 mi NW 15.0 mph 24.2 mph N/A   Overcast
1:15 PM 17.6 °F 1.7 °F 8.6 °F 68% 29.98 in 10.0 mi NW 18.4 mph - N/A   Overcast
1:35 PM 17.6 °F 1.7 °F 6.8 °F 63% 29.99 in 10.0 mi WNW 18.4 mph 24.2 mph N/A   Overcast
1:55 PM 15.8 °F 0.3 °F 5.0 °F 62% 30.00 in 10.0 mi NW 16.1 mph - N/A   Overcast
2:15 PM 15.8 °F -0.6 °F 5.0 °F 62% 30.01 in 10.0 mi WNW 18.4 mph - N/A   Overcast
2:35 PM 17.6 °F 2.2 °F 5.0 °F 58% 30.02 in 10.0 mi WNW 17.3 mph 20.7 mph N/A   Overcast
2:55 PM 15.8 °F 0.9 °F 5.0 °F 62% 30.04 in 10.0 mi WNW 15.0 mph - N/A   Overcast
3:15 PM 15.8 °F 1.4 °F 5.0 °F 62% 30.04 in 10.0 mi WNW 13.8 mph 19.6 mph N/A   Overcast
3:35 PM 15.8 °F 2.1 °F 5.0 °F 62% 30.06 in 10.0 mi NW 12.7 mph 18.4 mph N/A   Overcast
3:55 PM 14.0 °F -0.8 °F 5.0 °F 67% 30.06 in 10.0 mi WNW 13.8 mph - N/A   Overcast
4:15 PM 14.0 °F 0.5 °F 3.2 °F 62% 30.07 in 10.0 mi WNW 11.5 mph - N/A   Overcast
4:35 PM 14.0 °F -0.2 °F 3.2 °F 62% 30.09 in 10.0 mi WNW 12.7 mph - N/A   Overcast
4:55 PM 14.0 °F 1.2 °F 3.2 °F 62% 30.10 in 10.0 mi WNW 10.4 mph - N/A   Overcast
5:15 PM 12.2 °F -1.8 °F 3.2 °F 67% 30.10 in 10.0 mi WNW 11.5 mph - N/A   Overcast
5:35 PM 12.2 °F -2.5 °F 3.2 °F 67% 30.12 in 10.0 mi NW 12.7 mph - N/A   Mostly Cloudy
5:55 PM 12.2 °F -1.8 °F 3.2 °F 67% 30.12 in 10.0 mi WNW 11.5 mph - N/A   Overcast
6:15 PM 12.2 °F 0.7 °F 3.2 °F 67% 30.12 in 10.0 mi West 8.1 mph - N/A   Mostly Cloudy
6:35 PM 12.2 °F -0.2 °F 3.2 °F 67% 30.14 in 10.0 mi WNW 9.2 mph - N/A   Overcast
6:55 PM 12.2 °F -1.0 °F 3.2 °F 67% 30.14 in 10.0 mi West 10.4 mph - N/A   Overcast
7:15 PM 10.4 °F -3.3 °F 1.4 °F 67% 30.16 in 10.0 mi WNW 10.4 mph - N/A   Overcast
7:35 PM 10.4 °F -2.4 °F 1.4 °F 67% 30.16 in 10.0 mi WNW 9.2 mph - N/A   Overcast
7:55 PM 10.4 °F -1.5 °F 1.4 °F 67% 30.17 in 10.0 mi WNW 8.1 mph - N/A   Overcast
8:15 PM 10.4 °F -2.4 °F 1.4 °F 67% 30.17 in 10.0 mi WNW 9.2 mph - N/A   Mostly Cloudy
8:35 PM 10.4 °F -2.4 °F 1.4 °F 67% 30.19 in 10.0 mi WNW 9.2 mph - N/A   Mostly Cloudy
8:55 PM 8.6 °F -4.7 °F 1.4 °F 73% 30.19 in 10.0 mi WNW 9.2 mph - N/A   Overcast
9:15 PM 8.6 °F -3.7 °F 1.4 °F 73% 30.20 in 10.0 mi WNW 8.1 mph - N/A   Mostly Cloudy
9:35 PM 8.6 °F -3.7 °F 1.4 °F 73% 30.21 in 10.0 mi WNW 8.1 mph - N/A   Mostly Cloudy
9:55 PM 6.8 °F -4.8 °F -0.4 °F 72% 30.22 in 10.0 mi West 6.9 mph - N/A   Scattered Clouds
10:15 PM 5.0 °F -6.9 °F -0.4 °F 78% 30.23 in 10.0 mi West 6.9 mph - N/A   Mostly Cloudy
10:35 PM 5.0 °F -8.1 °F -0.4 °F 78% 30.23 in 10.0 mi West 8.1 mph - N/A   Scattered Clouds
10:55 PM 5.0 °F -8.1 °F -0.4 °F 78% 30.25 in 10.0 mi West 8.1 mph - N/A   Clear
11:15 PM 3.2 °F -9.1 °F -0.4 °F 85% 30.26 in 10.0 mi West 6.9 mph - N/A   Clear
11:35 PM 3.2 °F -7.8 °F -0.4 °F 85% 30.26 in 10.0 mi WNW 5.8 mph - N/A   Clear
11:55 PM 3.2 °F -9.1 °F -2.2 °F 78% 30.27 in 10.0 mi West 6.9 mph - N/A   Clear